Regional Weather Roundup
Issued by NWS

Home | Current Version | Previous Version | Graphics & Text | Print | Product List | Glossary On
Versions: 1 2 3 4 5 6 7 8 9 10 11 12 13 14 15 16 17 18 19 20 21 22 23 24 25 26 27 28
000
ASUS45 KSLC 231010
RWRUT

UTAH REGIONAL WEATHER ROUNDUP
NATIONAL WEATHER SERVICE SALT LAKE CITY UT
300 AM MST THU FEB 23 2017

UTZ001>011-023>025-231100-

NORTHERN UTAH

CITY           SKY/WX    TMP DP  RH WIND       PRES   REMARKS
BRIGHAM CITY     N/A     31  27  83 SE6       29.71S WCI  26
HILL AFB       LGT SNOW  28  27  93 S7        29.69S FOG     WCI  21
LOGAN          CLOUDY    30  24  78 W3        29.68F
OGDEN          CLOUDY    30  23  75 W6        29.69F WCI  24
SALT LAKE CITY CLOUDY    30  27  88 SE8       29.70F WCI  22
TOOELE VALLEY  MOCLDY    30  28  93 SE10      29.71F WCI  21
WENDOVER       CLOUDY    30  18  59 SW12      29.73F WCI  21
HEBER CITY     LGT SNOW  25  21  86 CALM      29.64F
WEST JORDAN    CLOUDY    31  31 100 SE6       29.70F WCI  25

$$

UTZ011>015-024>027-231100-

CENTRAL/NORTHEAST UTAH

CITY           SKY/WX    TMP DP  RH WIND       PRES   REMARKS
PROVO AIRPORT  LGT SNOW  28  27  93 VRB3      29.72F FOG
MOAB/CANYONLAN MOCLDY    34  25  69 W13       29.61R WCI  25
DELTA          PTCLDY    23  21  93 SW7       29.74F WCI  15
PRICE          CLOUDY    29  10  45 W10       29.59F WCI  20
ROOSEVELT      LGT SNOW  30  27  86 W10       29.59F WCI  21
VERNAL         CLOUDY    28  25  88 SW5       29.55F WCI  23

$$

UTZ013>016-019>022-027-231100-

SOUTHERN UTAH

CITY           SKY/WX    TMP DP  RH WIND       PRES   REMARKS
BRYCE CANYON   CLOUDY    19  12  74 W13       29.67F WCI   6
CEDAR CITY     CLOUDY    23  20  88 S8        29.76S WCI  14
MILFORD        CLOUDY    16  14  92 S6        29.76F WCI   7
ST GEORGE      CLOUDY    38  34  85 CALM      29.84S
HANKSVILLE     CLOUDY    36  10  35 W3        29.68F
BLANDING       CLOUDY    35  27  70 W20G30    29.69S WCI  24

$$

REGIONAL REPORTS     COLORADO/ARIZONA

CITY           SKY/WX    TMP DP  RH WIND       PRES   REMARKS
CRAIG, CO      CLOUDY    29  26  89 CALM      29.48F
GRAND JUNCTION CLOUDY    38  33  82 W16G28    29.55S WCI  29
RIFLE, CO      LGT RAIN  37  34  89 W23G32    29.50R WCI  26
MONTROSE, CO   CLOUDY    39  30  70 S18G28    29.57F WCI  30
CORTEZ, CO     FLURRIES  35  33  92 S24       29.65F WCI  23
COLORADO CITY    N/A     34  30  86 CALM      29.82S
PAGE, AZ       CLOUDY    38  15  39 NW10G22   29.73R WCI  31
GRAND CANYON   FLURRIES  27  24  89 W10       29.75F WCI  17
KINGMAN, AZ    CLEAR     38  19  46 SW13      29.86S WCI  30
FLAGSTAFF, AZ  CLEAR     30  16  56 W13G26    29.77S WCI  20

$$

REGIONAL REPORTS    NEVADA/IDAHO/WYOMING

CITY           SKY/WX    TMP DP  RH WIND       PRES   REMARKS
LAS VEGAS, NV  PTCLDY    46  29  51 S5        29.85S
ELY, NY        MOCLDY     6   0  76 S9        29.80S WCI  -8
ELKO, NV       FLURRIES  27  20  75 W14       29.80F WCI  16
POCATELLO, ID  LGT SNOW  28  27  96 W10       29.68F VSB 1   WCI  19
BURLEY, ID     CLOUDY    30  26  85 W9        29.67F WCI  22
FORT BRIDGER,  LGT SNOW  21  21 100 W16       29.62F VSB 1   WCI   7
EVANSTON, WY   LGT SNOW  19  15  84 SW9       29.59F FOG     WCI   8
ROCK SPRINGS,  LGT SNOW  24  21  88 NW6       29.53F FOG     WCI  17

$$




USA.gov is the U.S. government's official web portal to all federal, state and local government web resources and services.